Location: Niedergestelen
(46.3129°N, 7.7822°E)
Time: 06:03:54
(UTC+00:00)

CSL-04 Rocket - Pass Details

Date: 01 December 2020
Orbit: 807 x 859 km, 98.9° (Epoch: 18 January)

Event Time Altitude Azimuth Distance (km) Brightness Sun altitude
Exits shadow 17:44:06 35° 51° (NE) 1,291 4.2 -20.0°
Drops below altitude 10° 17:48:21 10° 1° (N) 2,406 6.0 -20.8°
Sets 17:50:50 0° 353° (N) 3,338 6.8 -21.2°
